Weather History for Lille, France

Change the Weather History Date:

Wednesday, March 20, 2013

  Actual Average Record
Temperature  
Mean Temperature 38 °F -  
Max Temperature 40 °F 54 °F 68 °F (2014)
Min Temperature 35 °F 40 °F 30 °F (2011)
Degree Days  
Heating Degree Days 28    
Moisture  
Dew Point 36 °F    
Average Humidity 90    
Maximum Humidity 100    
Minimum Humidity 75    
Precipitation  
Precipitation 0.02 in - - ()
Sea Level Pressure  
Sea Level Pressure 29.64 in    
Wind  
Wind Speed 7 mph ()    
Max Wind Speed 15 mph    
Max Gust Speed -    
Visibility 3.3 miles    
Events Rain    
Averages and records for this station are not official NWS values.
T = Trace of Precipitation, MM = Missing Value Source: Averaged Metar Reports

Daily Weather History Graph

Daily Weather History Graph

Search for Another Location

Airport:

Trip Planner

Search our weather history database for the weather conditions in past years. The results will help you decide how hot, cold, wet, or windy it might be!

Date:

Astronomy

Mar. 20, 2013 Rise Set
Actual Time 6:50 AM CET 7:00 PM CET
Civil Twilight 6:17 AM CET 7:33 PM CET
Nautical Twilight 5:39 AM CET 8:12 PM CET
Astronomical Twilight 4:59 AM CET 8:52 PM CET
Moon 11:47 AM CET (3/20) 2:53 AM CET (3/20)
Length of Visible Light 13h 15m
Length of Day
12h 10m
First Quarter, 57% of the Moon is Illuminated
Mar 20
First Quarter
Mar 27
Full
Apr 3
Last Quarter
Apr 10
New
Apr 18
First Quarter

Hourly Weather History & Observations

Time (CET) Temp. Windchill Dew Point Humidity Pressure Visibility Wind Dir Wind Speed Gust Speed Precip Events Conditions
12:00 AM 39.2 °F 33.6 °F 33.8 °F 81% 29.50 in 3.7 mi East 8.1 mph - N/A   Mostly Cloudy
12:30 AM 39.2 °F 34.2 °F 35.6 °F 87% 29.47 in 3.7 mi East 6.9 mph - N/A   Mostly Cloudy
1:00 AM 39 °F - 35 °F 81% 29.51 in 3 mi East 5.8 mph - -   Mist
1:00 AM 39.2 °F 35.0 °F 35.6 °F 87% 29.47 in 2.8 mi East 5.8 mph - N/A   Mostly Cloudy
1:30 AM 39.2 °F 35.0 °F 35.6 °F 87% 29.47 in - East 5.8 mph - N/A   Light Drizzle
2:00 AM 39.2 °F 35.0 °F 37.4 °F 93% 29.47 in - East 5.8 mph - N/A Rain Light Rain
2:30 AM 39.2 °F 35.9 °F 37.4 °F 93% 29.47 in - ESE 4.6 mph - N/A Rain Light Rain
3:00 AM 39.2 °F 35.0 °F 37.4 °F 93% 29.47 in - East 5.8 mph - N/A Rain Light Rain
3:30 AM 39.2 °F 35.0 °F 37.4 °F 93% 29.47 in - East 5.8 mph - N/A   Mostly Cloudy
4:00 AM 39.2 °F 35.0 °F 39.2 °F 100% 29.47 in 1.9 mi ESE 5.8 mph - N/A Rain Light Rain
4:30 AM 39.2 °F 35.0 °F 39.2 °F 100% 29.47 in - ESE 5.8 mph - N/A Rain Light Rain
5:00 AM 39.2 °F 35.0 °F 39.2 °F 100% 29.44 in 3.7 mi East 5.8 mph - N/A Rain Light Rain
5:30 AM 39.2 °F 34.2 °F 39.2 °F 100% 29.44 in - ENE 6.9 mph - N/A Rain Light Rain
6:00 AM 39.2 °F 34.2 °F 39.2 °F 100% 29.47 in 1.9 mi East 6.9 mph - N/A Rain Light Rain
6:30 AM 39.2 °F 33.6 °F 39.2 °F 100% 29.47 in - ENE 8.1 mph - N/A Rain Light Rain
7:00 AM 39.2 °F - 39.2 °F 100% 29.47 in 1.9 mi Variable 2.3 mph - N/A Rain Light Rain
7:30 AM 39.2 °F 35.9 °F 39.2 °F 100% 29.47 in 2.2 mi ENE 4.6 mph - N/A   Overcast
8:00 AM 39.2 °F 37.0 °F 39.2 °F 100% 29.47 in 2.5 mi ENE 3.5 mph - N/A   Overcast
8:30 AM 41.0 °F 39.0 °F 39.2 °F 93% 29.47 in 3.1 mi ENE 3.5 mph - N/A   Overcast
9:00 AM 39.2 °F 35.9 °F 39.2 °F 100% 29.50 in 3.1 mi East 4.6 mph - N/A   Overcast
9:30 AM 39.2 °F 37.0 °F 39.2 °F 100% 29.50 in 3.1 mi West 3.5 mph - N/A   Overcast
10:00 AM 39.2 °F 33.0 °F 37.4 °F 93% 29.50 in 3.1 mi NE 9.2 mph - N/A Rain Light Rain
10:30 AM 39.2 °F 33.0 °F 37.4 °F 93% 29.53 in 3.1 mi NE 9.2 mph - N/A Rain Light Rain
11:00 AM 37.4 °F 30.3 °F 37.4 °F 100% 29.53 in 3.1 mi NNE 10.4 mph - N/A   Overcast
11:30 AM 37.4 °F 29.8 °F 37.4 °F 100% 29.56 in 3.1 mi NNE 11.5 mph - N/A Rain Light Rain
12:00 PM 37.4 °F 29.8 °F 35.6 °F 93% 29.59 in 3.7 mi North 11.5 mph - N/A Rain Light Rain
12:30 PM 37.4 °F 29.8 °F 35.6 °F 93% 29.59 in 3.7 mi North 11.5 mph - N/A   Overcast
1:00 PM 38 °F - 36 °F 90% 29.64 in 4 mi North 11.5 mph - - Rain Light Rain
1:00 PM 37.4 °F 29.3 °F 35.6 °F 93% 29.62 in 3.7 mi North 12.7 mph - N/A   Overcast
1:30 PM 39.2 °F 32.0 °F 35.6 °F 87% 29.65 in 3.7 mi North 11.5 mph - N/A   Overcast
2:00 PM 37.4 °F 29.3 °F 35.6 °F 93% 29.65 in 2.5 mi North 12.7 mph - N/A   Overcast
2:30 PM 37.4 °F 29.3 °F 35.6 °F 93% 29.68 in 2.5 mi North 12.7 mph - N/A   Overcast
3:00 PM 37.4 °F 29.3 °F 35.6 °F 93% 29.71 in 2.5 mi North 12.7 mph - N/A   Overcast
3:30 PM 39.2 °F 31.6 °F 35.6 °F 87% 29.71 in 2.5 mi North 12.7 mph - N/A   Overcast
4:00 PM 39.2 °F 31.6 °F 35.6 °F 87% 29.74 in 2.5 mi North 12.7 mph - N/A   Overcast
4:30 PM 39.2 °F 32.5 °F 35.6 °F 87% 29.74 in 2.5 mi North 10.4 mph - N/A   Overcast
5:00 PM 39.2 °F 32.5 °F 35.6 °F 87% 29.77 in 2.5 mi NNW 10.4 mph - N/A   Overcast
5:30 PM 39.2 °F 31.6 °F 35.6 °F 87% 29.80 in 2.5 mi NNW 12.7 mph - N/A   Overcast
6:00 PM 39.2 °F 31.6 °F 33.8 °F 81% 29.80 in 3.1 mi NNW 12.7 mph - N/A   Overcast
6:30 PM 37.4 °F 28.9 °F 33.8 °F 87% 29.83 in 3.7 mi NNW 13.8 mph - N/A   Mostly Cloudy
7:00 PM 38 °F - 33 °F 75% 29.88 in 4 mi NNW 15.0 mph - -   Mostly Cloudy
7:00 PM 37.4 °F 28.9 °F 32.0 °F 81% 29.86 in 3.7 mi NNW 13.8 mph - N/A   Mostly Cloudy
7:30 PM 37.4 °F 30.8 °F 32.0 °F 81% 29.89 in 3.7 mi NNW 9.2 mph - N/A   Mostly Cloudy
8:00 PM 37.4 °F 30.3 °F 32.0 °F 81% 29.89 in 3.7 mi North 10.4 mph - N/A   Mostly Cloudy
8:30 PM 37.4 °F 29.8 °F 32.0 °F 81% 29.92 in 3.7 mi North 11.5 mph - N/A   Mostly Cloudy
9:00 PM 37.4 °F 30.8 °F 30.2 °F 75% 29.92 in 4.3 mi North 9.2 mph - N/A   Mostly Cloudy
9:30 PM 35.6 °F 29.2 °F 32.0 °F 87% 29.95 in 4.3 mi North 8.1 mph - N/A   Overcast
10:00 PM 35.6 °F 32.8 °F 30.2 °F 81% 29.95 in 5.0 mi Variable 3.5 mph - N/A   Overcast
10:30 PM 37.4 °F 32.8 °F 32.0 °F 81% 29.95 in 5.0 mi North 5.8 mph - N/A   Overcast
11:00 PM 37.4 °F 33.8 °F 30.2 °F 75% 29.98 in 5.0 mi North 4.6 mph - N/A   Overcast
11:30 PM 37.4 °F 33.8 °F 30.2 °F 75% 29.98 in 5.0 mi NNW 4.6 mph - N/A   Overcast